User: anonymous   Login
Location: Caltech
(34.1382°N, 118.1253°W)
Time: 15:26:26
(UTC-07:00)
Language:

Gurwin Techsat 1B - Orbit

View from above orbital plane
View from above orbital plane
View from above satellite
View from above satellite

Ground track
Ground track

The orbit data is extracted from the following two-line orbital elements,

1 25397U 98043D   16179.89421780 -.00000010 +00000-0 +14282-4 0  9996
2 25397 098.5675 124.5582 0000924 014.1839 345.9365 14.23596909933161
Epoch (UTC): 27 June 2016 21:27:40
Eccentricity: 0.0000924
inclination: 98.5675°
perigee height: 812 km
apogee height: 814 km
right ascension of ascending node: 124.5582°
argument of perigee: 14.1839°
revolutions per day: 14.23596909
mean anomaly at epoch: 345.9365°
orbit number at epoch: 93316

The dashed part of the orbit path shows where the satellite is in the earth's shadow,  

DLR